Date String (YYYY-MM-DD hh:mm:ss) UTC,Instrument flags,Ambient pressure (hPa),Sample flow (lpm),Bypass flow (lpm),Sample temperature (°C),Ambient temperature (°C),ASC tube jacket temperature (°C),LED temperature (°C),Box temperature (°C),Sample RH (%),Span deviation,Mass concentration (μg/m³),Mass concentration (μg/m³),Mass concentration (μg/m³)
DateTimeUTC,F1_M11,P_M11,Q1_M11,Q2_M11,T1_M11,T2_M11,T3_M11,T4_M11,T5_M11,U1_M11,ZSPAN_M11,X0_M11,X2_M11,X1_M11
2021-09-16 16:00:00,,0823.9,5.01,0.00,29.8,27.8,00.0,38.7,31.4,14.5,0003.2,0015.61,0006.15,0005.43
2021-09-16 16:01:00,,0823.8,5.00,0.00,29.6,26.3,00.0,38.7,30.9,14.8,0003.0,0014.87,0006.14,0005.44
2021-09-16 16:02:00,,0823.8,5.01,0.00,29.5,26.5,00.0,38.7,30.9,14.8,0002.9,0014.28,0006.14,0005.44
2021-09-16 16:03:00,,0823.7,5.00,0.00,29.5,26.9,00.0,38.7,31.0,15.0,0002.8,0013.65,0006.13,0005.43
2021-09-16 16:04:00,,0823.8,5.00,0.00,29.5,27.3,00.0,38.6,31.1,14.7,0003.1,0013.89,0006.15,0005.42
2021-09-16 16:05:00,,0823.8,4.99,0.00,29.5,27.7,00.0,38.6,31.2,15.2,0003.4,0013.36,0006.16,0005.43
2021-09-16 16:06:00,,0823.8,5.00,0.00,29.5,28.0,00.0,38.6,31.3,15.2,0003.0,0014.37,0006.19,0005.44
2021-09-16 16:07:00,,0823.8,5.00,0.00,29.6,28.3,00.0,38.6,31.4,15.6,0002.5,0014.71,0006.17,0005.42
2021-09-16 16:08:00,,0823.8,5.00,0.00,29.6,28.5,00.0,38.6,31.5,15.8,0002.2,0014.28,0006.17,0005.42
2021-09-16 16:09:00,,0823.8,4.99,0.00,29.7,28.6,00.0,38.7,31.5,16.2,0002.4,0014.09,0006.18,0005.43
2021-09-16 16:10:00,,0823.8,5.00,0.00,29.7,28.0,00.0,38.7,31.4,16.4,0002.2,0014.56,0006.20,0005.44
2021-09-16 16:11:00,,0823.8,4.99,0.00,29.6,26.3,00.0,38.6,30.9,16.2,0002.1,0014.83,0006.21,0005.43
2021-09-16 16:12:00,,0823.8,5.00,0.00,29.5,26.3,00.0,38.6,30.8,16.2,0002.2,0015.43,0006.24,0005.44
2021-09-16 16:13:00,,0823.8,5.01,0.00,29.4,26.7,00.0,38.6,31.0,16.8,0002.3,0016.01,0006.21,0005.42
2021-09-16 16:14:00,,0823.8,4.99,0.00,29.4,27.1,00.0,38.6,31.1,16.1,0002.4,0015.88,0006.21,0005.42
2021-09-16 16:15:00,,0823.8,5.00,0.00,29.4,27.5,00.0,38.5,31.2,14.1,0002.5,0016.19,0006.21,0005.43
2021-09-16 16:16:00,,0823.8,5.01,0.00,29.5,27.9,00.0,38.5,31.3,14.9,0002.6,0016.60,0006.25,0005.44
2021-09-16 16:17:00,,0823.8,5.00,0.00,29.5,28.2,00.0,38.5,31.3,13.4,0002.8,0015.41,0006.19,0005.43
2021-09-16 16:18:00,,0823.7,4.99,0.00,29.6,28.4,00.0,38.6,31.4,13.7,0003.1,0014.93,0006.12,0005.43
2021-09-16 16:19:00,,0823.7,5.00,0.00,29.6,28.6,00.0,38.6,31.5,13.7,0003.1,0014.87,0006.09,0005.42
2021-09-16 16:20:00,,0823.7,5.01,0.00,29.6,28.1,00.0,38.6,31.4,13.9,0003.0,0015.49,0006.10,0005.42
2021-09-16 16:21:00,,0823.7,5.01,0.00,29.5,26.5,00.0,38.6,31.0,15.3,0003.1,0015.57,0006.08,0005.40
2021-09-16 16:22:00,,0823.7,5.00,0.00,29.4,26.2,00.0,38.6,30.9,15.8,0003.3,0015.32,0006.05,0005.37
2021-09-16 16:23:00,,0823.7,4.99,0.00,29.4,26.7,00.0,38.6,31.0,15.9,0003.5,0014.98,0006.02,0005.33
2021-09-16 16:24:00,,0823.7,5.00,0.00,29.4,27.1,00.0,38.5,31.0,15.4,0003.2,0014.32,0006.06,0005.33
2021-09-16 16:25:00,,0823.7,4.99,0.00,29.4,27.5,00.0,38.5,31.1,15.5,0003.2,0014.75,0006.04,0005.32
2021-09-16 16:26:00,,0823.7,5.01,0.00,29.4,27.8,00.0,38.5,31.2,15.1,0003.2,0014.80,0006.01,0005.31
2021-09-16 16:27:00,,0823.7,5.00,0.00,29.5,28.1,00.0,38.5,31.3,15.2,0003.0,0014.25,0005.97,0005.29
2021-09-16 16:28:00,,0823.7,5.01,0.00,29.5,28.3,00.0,38.5,31.4,14.2,0003.0,0014.67,0006.00,0005.28
2021-09-16 16:29:00,,0823.7,5.01,0.00,29.6,28.5,00.0,38.5,31.4,14.7,0002.9,0014.85,0006.07,0005.28
2021-09-16 16:30:00,,0823.7,4.99,0.00,29.5,27.3,00.0,38.5,31.1,15.2,0002.8,0015.09,0006.10,0005.27
2021-09-16 16:31:00,,0823.7,5.00,0.00,29.4,26.1,00.0,38.5,30.8,15.5,0002.9,0015.11,0006.07,0005.26
2021-09-16 16:32:00,,0823.7,5.00,0.00,29.3,26.4,00.0,38.5,30.9,15.5,0002.7,0015.88,0006.04,0005.23
2021-09-16 16:33:00,,0823.7,5.00,0.00,29.3,26.8,00.0,38.5,30.9,15.4,0002.6,0017.01,0006.07,0005.23
2021-09-16 16:34:00,,0823.7,5.00,0.00,29.3,27.2,00.0,38.4,31.0,15.1,0002.4,0017.26,0006.09,0005.25
2021-09-16 16:35:00,,0823.7,5.00,0.00,29.3,27.6,00.0,38.4,31.1,14.8,0002.5,0017.58,0006.10,0005.25
2021-09-16 16:36:00,,0823.7,5.01,0.00,29.4,27.9,00.0,38.4,31.2,15.3,0002.4,0016.99,0006.10,0005.25
2021-09-16 16:37:00,,0823.7,5.00,0.00,29.4,28.2,00.0,38.4,31.3,15.7,0002.4,0016.82,0006.07,0005.24
2021-09-16 16:38:00,,0823.7,4.99,0.00,29.5,28.4,00.0,38.5,31.4,15.4,0002.2,0017.18,0006.09,0005.23
2021-09-16 16:39:00,,0823.7,5.00,0.00,29.5,28.2,00.0,38.5,31.3,14.7,0002.1,0017.73,0006.09,0005.23
2021-09-16 16:40:00,,0823.7,5.00,0.00,29.4,26.7,00.0,38.5,30.9,14.9,0002.4,0017.77,0006.06,0005.22
2021-09-16 16:41:00,,0823.7,5.00,0.00,29.3,26.1,00.0,38.4,30.7,14.9,0003.0,0017.96,0006.04,0005.22
2021-09-16 16:42:00,,0823.6,5.00,0.00,29.3,26.5,00.0,38.4,30.8,14.8,0002.8,0017.16,0006.10,0005.23
2021-09-16 16:43:00,,0823.7,4.99,0.00,29.3,26.9,00.0,38.4,30.9,14.4,0002.9,0016.12,0006.14,0005.26
2021-09-16 16:44:00,,0823.7,5.00,0.00,29.3,27.3,00.0,38.4,30.9,13.8,0003.1,0014.98,0006.10,0005.29
2021-09-16 16:45:00,,0823.6,5.00,0.00,29.3,27.7,00.0,38.4,31.1,13.3,0003.5,0015.43,0006.08,0005.30
2021-09-16 16:46:00,,0823.6,5.01,0.00,29.3,28.0,00.0,38.4,31.2,12.2,0003.7,0015.81,0006.08,0005.35
2021-09-16 16:47:00,,0823.6,4.99,0.00,29.4,28.2,00.0,38.4,31.3,11.4,0003.9,0016.25,0006.12,0005.42
2021-09-16 16:48:00,,0823.5,5.00,0.00,29.4,27.4,00.0,38.4,31.1,13.2,0003.8,0015.88,0006.17,0005.48
2021-09-16 16:49:00,,0823.5,5.01,0.00,29.3,26.0,00.0,38.4,30.7,13.6,0004.0,0016.25,0006.18,0005.51
2021-09-16 16:50:00,,0823.4,4.99,0.00,29.2,26.1,00.0,38.4,30.7,14.0,0004.1,0015.85,0006.18,0005.54
2021-09-16 16:51:00,,0823.4,5.00,0.00,29.2,26.6,00.0,38.3,30.7,13.8,0004.1,0015.68,0006.21,0005.57
2021-09-16 16:52:00,,0823.4,5.00,0.00,29.1,27.0,00.0,38.3,30.8,13.4,0004.0,0014.59,0006.20,0005.59
2021-09-16 16:53:00,,0823.4,5.00,0.00,29.2,27.4,00.0,38.3,30.9,13.8,0004.0,0014.58,0006.20,0005.61
2021-09-16 16:54:00,,0823.4,5.00,0.00,29.2,27.8,00.0,38.3,31.0,12.4,0003.6,0014.52,0006.18,0005.62
2021-09-16 16:55:00,,0823.4,4.99,0.00,29.3,28.0,00.0,38.3,31.1,12.2,0003.3,0014.37,0006.21,0005.65
2021-09-16 16:56:00,,0823.4,5.00,0.00,29.3,28.3,00.0,38.3,31.2,11.2,0003.3,0013.71,0006.27,0005.69
2021-09-16 16:57:00,,0823.3,5.01,0.00,29.3,27.5,00.0,38.3,31.0,12.6,0003.1,0012.99,0006.28,0005.69
2021-09-16 16:58:00,,0823.3,5.01,0.00,29.2,26.0,00.0,38.3,30.6,13.4,0003.1,0012.61,0006.27,0005.66
2021-09-16 16:59:00,,0823.3,4.99,0.00,29.1,26.1,00.0,38.3,30.6,14.1,0003.4,0013.06,0006.30,0005.64
